| time (UTC) | temp F | wind direction | speed MPH | gust MPH | rain 1hr in | rain 24hr in | rain mn in | humidity % | barometer mb |
| 20260503040017 | 38 | 0.0 | 0.0 | 0.00 | 0.00 | 0.00 | 85 | 1012.5 | |
| 20260503034537 | 39 | 0.0 | 0.0 | 0.00 | 0.00 | 0.00 | 85 | 1012.6 | |
| 20260503033015 | 39 | 0.0 | 0.0 | 0.00 | 0.00 | 0.00 | 83 | 1012.5 | |
| 20260503031517 | 39 | 0.0 | 0.0 | 0.00 | 0.00 | 0.00 | 81 | 1012.6 | |
| 20260503030015 | 40 | 0.0 | 0.0 | 0.00 | 0.00 | 0.00 | 80 | 1012.7 | |
| 20260503024517 | 40 | 0.0 | 0.0 | 0.00 | 0.00 | 0.00 | 78 | 1012.6 | |
| 20260503023016 | 41 | 0.0 | 0.0 | 0.00 | 0.00 | 0.00 | 76 | 1012.6 | |
| 20260503021516 | 42 | 0.0 | 0.0 | 0.00 | 0.00 | 0.00 | 75 | 1012.4 | |
| 20260503020016 | 42 | 0.0 | 0.0 | 0.00 | 0.00 | 0.00 | 74 | 1012.3 | |
| 20260503014536 | 43 | 0.0 | 0.0 | 0.00 | 0.00 | 0.00 | 72 | 1012.3 | |
| 20260503013016 | 44 | 0.0 | 0.0 | 0.00 | 0.00 | 0.00 | 70 | 1012.1 | |
| 20260503011536 | 45 | 0.0 | 0.0 | 0.00 | 0.00 | 0.00 | 68 | 1011.8 | |
| 20260503010017 | 46 | 0.0 | 0.0 | 0.00 | 0.00 | 0.00 | 64 | 1011.8 | |
| 20260503004516 | 48 | 0.0 | 0.0 | 0.00 | 0.00 | 0.00 | 59 | 1011.7 | |
| 20260503003016 | 48 | 0.0 | 4.0 | 0.00 | 0.00 | 0.00 | 52 | 1011.5 | |
| 20260503001516 | 49 | 0.0 | 3.0 | 0.00 | 0.00 | 0.00 | 50 | 1011.4 | |
| 20260503000016 | 50 | 0.0 | 5.0 | 0.00 | 0.00 | 0.00 | 50 | 1011.3 | |
| 20260502234656 | 51 | 0.0 | 3.0 | 0.00 | 0.00 | 0.00 | 45 | 1011.2 | |
| 20260502233036 | 52 | 45 | 1.0 | 7.0 | 0.00 | 0.00 | 0.00 | 43 | 1011.0 |
| 20260502231516 | 52 | 45 | 1.0 | 8.0 | 0.00 | 0.00 | 0.00 | 42 | 1011.0 |
| 20260502230016 | 52 | 68 | 1.0 | 7.0 | 0.00 | 0.00 | 0.00 | 42 | 1011.0 |
| 20260502224517 | 52 | 0.0 | 8.0 | 0.00 | 0.00 | 0.00 | 42 | 1010.9 | |
| 20260502223016 | 52 | 0.0 | 6.0 | 0.00 | 0.00 | 0.00 | 42 | 1011.0 | |
| 20260502221558 | 53 | 45 | 1.0 | 11.0 | 0.00 | 0.00 | 0.00 | 41 | 1010.8 |
| 20260502220017 | 53 | 45 | 1.0 | 8.0 | 0.00 | 0.00 | 0.00 | 39 | 1010.7 |
| 20260502214537 | 53 | 45 | 1.0 | 11.0 | 0.00 | 0.00 | 0.00 | 41 | 1010.7 |
| 20260502213038 | 54 | 90 | 1.0 | 12.0 | 0.00 | 0.00 | 0.00 | 41 | 1010.7 |
| 20260502211516 | 54 | 0.0 | 7.0 | 0.00 | 0.00 | 0.00 | 39 | 1010.6 | |
| 20260502210036 | 55 | 45 | 1.0 | 8.0 | 0.00 | 0.00 | 0.00 | 38 | 1010.5 |
| 20260502204516 | 54 | 90 | 1.0 | 10.0 | 0.00 | 0.00 | 0.00 | 38 | 1010.6 |
| 20260502203016 | 55 | 45 | 1.0 | 11.0 | 0.00 | 0.00 | 0.00 | 36 | 1010.5 |
| 20260502201516 | 55 | 113 | 1.0 | 7.0 | 0.00 | 0.00 | 0.00 | 41 | 1010.7 |
| 20260502200036 | 56 | 68 | 1.0 | 7.0 | 0.00 | 0.00 | 0.00 | 35 | 1010.7 |
| 20260502194543 | 56 | 45 | 2.0 | 10.0 | 0.00 | 0.00 | 0.00 | 36 | 1010.7 |
| 20260502193016 | 55 | 113 | 1.0 | 5.0 | 0.00 | 0.00 | 0.00 | 39 | 1010.6 |
| 20260502191516 | 55 | 90 | 1.0 | 7.0 | 0.00 | 0.00 | 0.00 | 39 | 1011.0 |
| 20260502190016 | 55 | 45 | 1.0 | 10.0 | 0.00 | 0.00 | 0.00 | 39 | 1010.9 |
| 20260502184536 | 54 | 45 | 1.0 | 14.0 | 0.00 | 0.00 | 0.00 | 40 | 1011.0 |
| 20260502183016 | 53 | 23 | 1.0 | 7.0 | 0.00 | 0.00 | 0.00 | 40 | 1011.2 |
| 20260502181516 | 53 | 45 | 1.0 | 8.0 | 0.00 | 0.00 | 0.00 | 41 | 1011.2 |
| 20260502163016 | 54 | 45 | 1.0 | 7.0 | 0.00 | 0.00 | 0.00 | 43 | 1011.8 |
| 20260502161516 | 53 | 45 | 2.0 | 8.0 | 0.00 | 0.00 | 0.00 | 48 | 1012.0 |
| 20260502151517 | 50 | 45 | 1.0 | 7.0 | 0.00 | 0.00 | 0.00 | 52 | 1012.2 |
| 20260502123101 | 40 | 0.0 | 2.0 | 0.00 | 0.00 | 0.00 | 99 | 1012.1 | |
| 20260502121516 | 39 | 0.0 | 2.0 | 0.00 | 0.00 | 0.00 | 99 | 1011.9 | |
| 20260502114537 | 38 | 0.0 | 0.0 | 0.00 | 0.00 | 0.00 | 99 | 1011.6 | |
| 20260502113017 | 36 | 0.0 | 0.0 | 0.00 | 0.00 | 0.00 | 99 | 1011.6 | |
| 20260502111517 | 36 | 0.0 | 0.0 | 0.00 | 0.00 | 0.00 | 98 | 1011.3 | |
| 20260502110017 | 35 | 0.0 | 0.0 | 0.00 | 0.00 | 0.00 | 98 | 1011.1 | |
| 20260502104537 | 35 | 0.0 | 0.0 | 0.00 | 0.00 | 0.00 | 97 | 1011.2 | |
| 20260502103017 | 36 | 0.0 | 0.0 | 0.00 | 0.00 | 0.00 | 97 | 1011.4 | |
| 20260502101517 | 36 | 0.0 | 0.0 | 0.00 | 0.00 | 0.00 | 97 | 1011.3 | |
| 20260502100119 | 37 | 0.0 | 0.0 | 0.00 | 0.00 | 0.00 | 97 | 1011.3 | |
| 20260502091517 | 38 | 0.0 | 0.0 | 0.00 | 0.00 | 0.00 | 97 | 1011.2 | |
| 20260502071517 | 38 | 0.0 | 0.0 | 0.00 | 0.00 | 0.00 | 95 | 1010.9 | |
| 20260502070019 | 38 | 0.0 | 0.0 | 0.00 | 0.00 | 0.00 | 95 | 1010.8 | |
| 20260502064517 | 39 | 0.0 | 0.0 | 0.00 | 0.00 | 0.00 | 94 | 1010.7 | |
| 20260502063017 | 39 | 0.0 | 0.0 | 0.00 | 0.00 | 0.00 | 94 | 1011.0 | |
| 20260502061517 | 39 | 0.0 | 0.0 | 0.00 | 0.00 | 0.00 | 94 | 1011.4 | |
| 20260502060017 | 39 | 0.0 | 0.0 | 0.00 | 0.00 | 0.00 | 93 | 1011.5 | |
| 20260502054517 | 39 | 0.0 | 0.0 | 0.00 | 0.00 | 0.00 | 93 | 1011.5 | |
| 20260502053017 | 40 | 0.0 | 0.0 | 0.00 | 0.00 | 0.00 | 92 | 1011.5 | |
| 20260502051517 | 40 | 0.0 | 0.0 | 0.00 | 0.00 | 0.00 | 92 | 1011.4 | |
| 20260502050016 | 40 | 0.0 | 0.0 | 0.00 | 0.00 | 0.00 | 91 | 1011.3 | |
| 20260502044515 | 40 | 0.0 | 0.0 | 0.00 | 0.00 | 0.00 | 91 | 1011.4 | |
| 20260502043015 | 41 | 0.0 | 0.0 | 0.00 | 0.00 | 0.00 | 91 | 1011.6 | |
| 20260502041537 | 41 | 0.0 | 0.0 | 0.00 | 0.00 | 0.00 | 90 | 1011.7 |